GSAT0215 (PRN E21)

Last updated on Nov. 21, 2019, 4:16 a.m. UTC

1 43055U 17079A   19324.12682100 -.00000020  00000-0  00000+0 0  9992
2 43055  56.4382 287.5651 0003565 270.5389  89.4083  1.70473411 12052
UTC
Height (km)
Latitude
Longitude
Inclination
Orbital Period
UTC large
Height (km)
Speed (km/s)
/
Latitude / Longitude
Inclination (degrees)
Orbital Period (minutes)
Azimuth
Elevation
Range (km)
Doppler Factor
iOS Compass Heading
iOS Angle

Next 30 passes for location: Hong Kong

Rise time Rise Azimuth (degrees) Set time Set Azimuth (degrees) Duration Max altitude (degrees)

No matching passes for this satellites